This demonstration page uses our WeatherBlox Daily Observations layout. Learn more.

Left ArrowRight Arrow

39.95238, -75.16362

Hourly Observations for May 18, 2018

Temp ( °F °C ) Dew Point ( °F °C ) Humidity (%) Winds ( mph kmh ) Pressure ( in mb ) Visibility ( mi km ) Precip ( " mm )
12:54 am 00:54 Cloudy 64 17.8 63 17.2 96 96 Calm 30.10 1019 7 11 0.00 0.00
1:49 am 01:49 Cloudy 64 18 63 17 94 94 Calm 30.09 1019 7 11 0.00 0.00
1:54 am 01:54 Cloudy 65 18.3 63 17.2 93 93 Calm 30.10 1019 7 11 0.00 0.00
2:41 am 02:41 Cloudy 64 17.8 63 17.2 96 96 E 3 6 30.09 1019 7 11 0.00 0.00
2:54 am 02:54 Cloudy 64 17.8 63 17.2 96 96 NE 3 6 30.10 1019 7 11 0.00 0.00
3:52 am 03:52 Cloudy with Mist and Fog 64 18 63 17 94 94 ESE 5 7 30.12 1020 5 8 0.00 0.00
3:54 am 03:54 Cloudy with Mist and Fog 64 17.8 63 17.2 96 96 ESE 5 7 30.11 1020 5 8 0.00 0.00
4:01 am 04:01 Cloudy with Mist and Fog 64 17.8 63 17.2 96 96 SE 5 7 30.12 1020 5 8 0.00 0.00
4:44 am 04:44 Cloudy with Mist and Fog 64 17.8 63 17.2 96 96 NNE 6 9 30.09 1019 4 6 0.00 0.03
4:54 am 04:54 Cloudy with Mist and Fog 64 17.8 63 17.2 96 96 Calm 30.10 1019 4 6 0.00 0.03
5:04 am 05:04 Cloudy with Mist and Fog 64 17.8 63 17.2 96 96 ESE 6 9 30.12 1020 5 8 0.00 0.00
5:50 am 05:50 Mostly Cloudy with Light Rain 64 18 63 17 94 94 E 6 9 30.12 1020 7 11 0.00 0.03
5:54 am 05:54 Mostly Cloudy with Light Rain 64 17.8 63 17.2 96 96 E 5 7 30.11 1020 7 11 0.00 0.03
6:25 am 06:25 Cloudy with Light Rain 64 17.8 63 17.2 96 96 NNE 7 11 30.12 1020 6 10 0.01 0.25
6:54 am 06:54 Cloudy with Light Rain 64 17.8 63 17.2 96 96 ENE 6 9 30.14 1021 6 10 0.01 0.25
7:54 am 07:54 Cloudy with Light Rain 64 17.8 63 17.2 96 96 ENE 7 11 30.15 1021 5 8 0.00 0.03
8:39 am 08:39 Cloudy with Light Rain 65 18.3 63 17.2 93 93 ENE 9 15 30.15 1021 7 11 0.01 0.25
8:54 am 08:54 Cloudy 65 18.3 63 17.2 93 93 NE 8 13 30.16 1022 7 11 0.01 0.25
9:00 am 09:00 Cloudy 65 18.3 63 17.2 93 93 NE 10 17 30.18 1022 7 11 0.00 0.00
9:07 am 09:07 Cloudy with Light Rain 65 18.3 63 17.2 93 93 NE 10 17 30.18 1022 7 11 0.00 0.03
9:30 am 09:30 Cloudy with Light Rain 64 17.8 63 17.2 96 96 ENE 14 22 30.18 1022 6 10 0.00 0.03
9:54 am 09:54 Cloudy with Light Rain 64 17.8 62 16.7 93 93 ENE 12 19 30.19 1022 5 8 0.00 0.03
10:32 am 10:32 Cloudy with Light Rain 63 17.2 60 15.6 90 90 ENE 16 26 30.21 1023 7 11 0.00 0.03
10:54 am 10:54 Cloudy with Light Rain 61 16.1 58 14.4 90 90 E 24 39 30.24 1024 8 13 0.00 0.03
11:31 am 11:31 Cloudy with Light Rain 60 15.6 55 12.8 84 84 ENE 21 33 30.24 1024 9 14 0.00 0.03
11:50 am 11:50 Cloudy with Light Rain 59 15 52 11 77 77 ENE 18 30 30.27 1025 9 14 0.00 0.03
11:54 am 11:54 Cloudy 59 15 52 11.1 78 78 ENE 18 30 30.26 1025 10 16 0.00 0.03
12:54 pm 12:54 Cloudy 60 15.6 51 10.6 72 72 ENE 18 30 30.26 1025 10 16 0.00 0.00
1:00 pm 13:00 Cloudy 61 16.1 52 11.1 72 72 ENE 18 30 30.27 1025 10 16 0.00 0.00
1:54 pm 13:54 Cloudy 62 16.7 52 11.1 70 70 ENE 20 31 30.26 1025 10 16 0.00 0.00
2:30 pm 14:30 Cloudy 62 16.7 52 11.1 70 70 ENE 16 26 30.27 1025 10 16 0.00 0.00
2:54 pm 14:54 Cloudy 62 16.7 51 10.6 67 67 ENE 20 31 30.27 1025 10 16 0.00 0.00
3:54 pm 15:54 Cloudy 60 15.6 49 9.4 67 67 ENE 23 37 30.27 1025 10 16 0.00 0.00
4:54 pm 16:54 Cloudy 58 14.4 45 7.2 62 62 ENE 18 30 30.27 1025 10 16 0.00 0.00
5:54 pm 17:54 Cloudy 58 14.4 45 7.2 62 62 E 21 33 30.28 1025 10 16 0.00 0.00
6:54 pm 18:54 Cloudy 57 13.9 45 7.2 64 64 ENE 16 26 30.29 1026 10 16 0.00 0.00
7:54 pm 19:54 Cloudy 55 12.8 44 6.7 67 67 ENE 14 22 30.30 1026 10 16 0.00 0.00
8:54 pm 20:54 Cloudy with Light Rain 54 12.2 44 6.7 69 69 ENE 17 28 30.30 1026 10 16 0.00 0.03
9:47 pm 21:47 Cloudy with Light Rain 53 11.7 44 6.7 72 72 ENE 12 19 30.30 1026 10 16 0.00 0.03
9:54 pm 21:54 Cloudy with Light Rain 53 11.7 45 7.2 74 74 ENE 13 20 30.31 1026 10 16 0.00 0.03
10:54 pm 22:54 Cloudy with Light Rain 54 12.2 45 7.2 72 72 ENE 15 24 30.31 1027 10 16 0.00 0.03
11:29 pm 23:29 Cloudy with Light Rain 52 11.1 46 7.8 80 80 ENE 20 31 30.33 1027 7 11 0.00 0.03
11:54 pm 23:54 Cloudy with Light Rain 52 11.1 46 7.8 80 80 ENE 15 24 30.31 1027 9 14 0.00 0.03

Powered by AerisWeather